Wind_Speed
14 14 14 15 14 14 14 15 16 17 18 19 19 20 21 21 21 21 21 21 22 22 22 22 22 22 22 22 22 22 22 22 22 22 22 22 23 23 24 24 24 24 24
14 14 15 15 15 15 15 16 17 19 20 20 21 21 22 23 23 23 23 23 23 23 23 23 22 23 23 23 23 23 23 24 24 23 23 23 23 24 25 25 24 24 24
15 15 15 15 15 16 17 17 19 20 21 22 23 23 24 24 24 25 25 24 24 24 24 24 23 23 23 24 24 24 24 24 24 24 23 24 24 24 25 25 25 25 25
17 16 16 16 17 17 18 19 20 21 22 23 24 24 25 24 25 25 25 26 25 25 25 24 24 24 24 25 24 24 24 25 25 25 25 25 26 26 26 26 25 25 25
17 17 17 17 18 19 20 21 22 22 23 25 26 26 26 25 26 26 26 26 25 25 25 25 24 24 25 25 26 25 26 26 26 26 26 26 27 26 26 26 25 25 25
17 17 17 18 19 20 22 23 23 24 26 26 27 27 27 26 25 26 26 26 26 26 26 26 25 26 26 27 27 27 27 27 26 27 27 27 26 26 26 25 24 24 24
18 17 18 19 20 22 24 24 25 27 27 27 27 27 27 26 26 26 26 26 27 27 27 27 27 28 28 28 28 28 27 27 27 27 27 27 26 25 25 24 23 23 23
19 19 20 21 22 24 25 26 27 28 27 27 26 27 27 27 27 28 28 28 28 28 29 29 29 29 28 28 28 27 27 27 26 26 26 26 27 26 25 25 24 24 24
20 21 22 23 24 25 26 26 26 26 26 25 26 27 27 28 28 29 29 30 30 30 30 30 29 29 29 28 27 27 27 27 26 25 25 26 26 26 26 25 25 24 23
21 22 23 24 25 25 25 25 25 25 26 27 28 28 28 28 29 30 30 30 30 30 30 30 30 29 29 29 28 28 27 27 26 25 25 25 25 25 26 25 24 24 23
22 23 24 24 25 25 25 25 25 25 26 27 28 28 29 29 30 30 30 30 30 30 30 30 30 30 30 29 29 28 27 26 26 25 25 25 24 25 25 25 24 23 23
22 23 24 25 25 25 25 25 26 27 27 28 28 28 29 29 29 29 30 31 30 30 30 30 30 30 30 29 29 28 28 27 26 25 25 25 25 24 23 23 23 22 23
23 23 24 25 25 26 26 26 27 27 27 28 28 28 29 29 29 30 30 30 30 30 30 30 30 29 29 28 28 27 26 25 25 25 25 24 24 23 23 23 22 22 22
24 23 24 25 25 25 26 26 27 27 27 27 27 28 29 29 29 30 31 31 31 31 30 30 29 28 28 28 27 26 25 24 23 23 24 23 23 23 22 22 22 21 22
24 24 24 25 25 25 25 25 26 27 27 28 28 29 30 31 31 31 32 31 31 30 30 29 28 27 28 27 28 27 25 24 23 23 23 22 22 22 21 21 21 20 20
23 24 25 25 25 26 25 26 27 28 28 28 29 30 30 31 31 31 31 31 31 30 29 28 27 27 27 27 27 26 25 24 23 22 22 21 21 21 21 20 20 19 19
23 24 25 25 26 26 26 27 28 29 29 29 29 30 30 31 31 30 30 30 30 30 29 28 27 26 26 27 26 25 24 23 22 22 21 21 21 21 21 21 20 19 18
24 24 25 25 26 27 28 29 29 29 28 28 29 30 30 30 30 30 30 30 29 29 29 27 26 26 26 27 26 25 24 23 22 22 21 21 21 20 20 20 19 19 18
25 25 26 26 27 27 27 28 28 29 29 29 30 30 30 29 29 29 29 29 29 28 27 27 27 27 27 27 26 25 24 23 22 21 21 21 21 20 20 19 18 18 18
25 25 25 26 26 27 27 27 27 29 29 29 29 29 29 29 29 30 29 29 28 26 26 27 27 28 28 27 26 25 25 24 22 21 21 21 20 20 20 19 18 18 17
25 25 25 26 26 26 26 27 28 29 29 28 28 28 28 28 28 28 28 28 27 26 26 26 27 28 28 27 25 25 24 23 22 21 21 21 19 19 18 17 16 17 17
25 26 26 26 26 26 26 26 27 27 27 27 28 28 28 27 27 27 27 26 26 26 26 27 27 27 27 26 25 24 23 22 22 21 20 19 18 17 16 16 15 15 15
26 26 25 25 25 26 26 26 27 27 27 27 27 27 27 27 27 27 27 26 26 27 27 27 27 27 27 25 24 24 23 22 21 20 19 18 17 16 16 15 15 15 14
26 26 26 26 26 26 26 26 26 26 27 27 27 27 27 27 27 27 27 27 27 27 27 28 27 27 26 25 24 23 22 21 19 18 17 16 15 14 14 14 13 14 14
26 26 25 25 25 25 25 25 26 26 26 26 27 27 27 27 27 27 27 28 28 28 28 27 27 26 26 25 23 21 20 19 18 16 14 14 13 13 13 13 13 13 13
26 25 25 25 25 24 25 25 26 26 26 26 26 26 26 27 27 28 28 28 29 29 27 26 26 25 25 24 22 20 19 19 18 16 15 14 13 13 13 12 12 12 12
Wind_Direction
296 299 302 306 309 314 316 318 320 321 322 320 319 320 321 322 321 319 315 314 313 312 310 308 307 305 302 300 298 296 294 294 293 291 290 290 289 288 286 285 284 284 283
291 297 303 306 307 310 315 316 317 317 319 318 318 317 318 318 317 318 316 312 310 309 308 307 306 304 302 299 299 297 295 294 294 292 290 289 290 290 290 288 286 285 284
295 297 302 304 306 308 311 315 317 316 316 316 317 316 316 317 316 315 314 313 311 310 309 307 305 303 301 300 300 299 297 295 293 292 291 290 291 292 291 288 287 285 283
298 302 303 303 304 308 311 313 315 316 316 316 317 316 316 317 318 317 316 315 313 311 310 307 306 305 303 301 301 300 299 296 295 293 293 291 290 291 291 288 287 286 282
297 300 301 302 305 308 308 310 312 312 314 316 316 316 316 315 315 316 316 315 313 311 309 307 307 307 305 302 299 298 297 295 294 293 293 293 290 289 289 287 286 286 283
297 299 301 301 303 305 306 308 310 311 314 314 315 316 316 316 316 316 316 317 314 312 311 310 309 307 303 301 300 298 296 294 293 291 291 292 292 291 289 287 285 284 282
296 298 299 301 301 303 304 306 309 310 311 313 314 315 316 316 317 318 317 317 315 313 311 309 308 305 302 300 300 299 297 296 294 293 292 292 293 292 289 288 285 284 283
295 295 296 299 301 301 303 305 308 310 311 313 314 314 314 316 317 318 317 317 317 314 311 309 308 307 305 304 301 299 298 298 296 295 294 293 293 291 290 289 286 284 283
293 293 295 297 299 300 302 306 309 310 312 314 314 314 314 314 315 316 318 318 317 315 313 312 310 308 307 306 303 300 299 299 296 295 295 293 291 290 289 288 285 284 284
291 293 295 297 300 302 304 306 307 310 312 312 314 315 314 315 315 316 317 318 317 316 315 313 312 310 309 307 304 301 300 299 297 294 294 294 293 291 289 288 285 284 284
291 294 297 298 300 302 303 304 306 309 311 311 312 314 314 314 314 315 317 317 317 316 315 315 314 312 310 307 304 301 300 298 296 294 293 293 293 292 289 288 287 285 284
291 294 296 299 300 300 302 304 305 308 309 310 311 312 313 313 314 315 317 317 317 316 316 315 314 314 312 309 306 303 300 297 294 294 293 293 292 291 289 286 285 284 284
292 294 296 297 298 299 301 303 304 306 308 309 310 312 313 314 313 314 316 318 318 317 315 315 315 315 313 311 309 306 303 299 295 294 294 294 292 291 290 288 284 283 284
291 294 295 296 298 300 301 303 305 306 308 309 311 312 313 314 314 315 317 318 319 317 316 315 315 315 315 314 312 308 305 301 298 296 295 294 292 291 290 288 286 285 285
290 292 294 296 298 300 301 303 306 308 309 309 310 312 312 312 313 314 316 317 318 318 317 317 314 314 314 314 313 310 306 303 300 298 296 294 292 291 290 288 287 285 285
289 292 294 297 298 299 300 302 305 307 309 310 310 311 313 313 313 314 315 315 315 317 317 317 315 314 314 314 313 312 309 306 303 299 296 295 291 290 288 287 287 285 284
291 294 296 298 299 299 300 303 305 306 308 309 310 311 313 313 313 314 315 314 314 314 316 316 316 316 315 314 314 312 310 308 305 301 297 295 294 291 289 287 286 285 283
291 294 295 296 298 300 301 303 305 306 307 308 310 310 312 313 313 314 314 314 314 315 315 315 316 316 315 315 314 312 310 308 305 303 299 298 297 294 293 290 287 285 283
292 294 294 295 297 299 300 302 305 306 307 308 309 310 311 312 313 313 314 314 314 314 315 315 315 315 315 315 313 312 310 307 304 301 299 298 296 293 292 290 287 284 283
293 295 296 296 297 300 302 303 304 306 307 308 309 311 311 311 312 313 315 315 315 314 314 314 315 316 315 314 312 312 311 309 305 302 300 299 297 294 291 289 286 283 282
292 294 296 298 300 302 302 303 305 306 307 307 310 312 313 313 313 314 315 316 316 316 315 314 316 316 315 314 312 312 312 311 308 305 304 301 297 294 292 288 285 282 282
292 294 297 299 300 301 302 304 306 307 307 308 310 312 312 313 315 315 316 316 317 316 316 316 316 316 315 313 312 312 311 310 309 308 307 302 298 294 290 288 287 286 284
294 295 297 298 299 300 301 303 305 305 306 309 311 312 313 313 314 316 316 316 316 316 316 317 316 315 315 313 312 311 310 309 309 308 305 302 298 293 290 288 287 287 287
294 296 298 298 298 299 299 301 303 304 307 310 311 312 313 314 314 315 316 317 317 315 315 316 316 316 315 313 311 310 310 309 309 307 304 301 298 294 291 289 289 288 286
293 295 296 296 296 297 298 301 304 305 308 310 311 312 313 314 317 317 316 317 316 315 315 315 314 314 314 313 312 311 310 309 310 308 302 299 297 294 291 289 289 289 287
292 293 294 295 295 297 298 301 303 305 308 310 311 312 313 314 316 317 317 316 317 315 315 314 312 312 312 311 310 310 309 308 307 304 299 298 299 298 294 291 290 288 287
Height
5863 5862 5861 5860 5859 5857 5856 5854 5853 5851 5849 5847 5844 5842 5839 5836 5833 5830 5827 5825 5822 5819 5816 5814 5811 5809 5806 5804 5803 5801 5800 5799 5798 5798 5796 5795 5794 5793 5792 5791 5790 5789 5788
5860 5859 5858 5857 5856 5855 5853 5851 5850 5848 5846 5843 5841 5838 5835 5832 5829 5826 5823 5820 5817 5814 5811 5808 5806 5803 5801 5799 5797 5795 5794 5793 5792 5791 5790 5789 5787 5786 5785 5783 5782 5782 5781
5857 5856 5855 5854 5853 5852 5850 5848 5846 5844 5842 5839 5836 5834 5831 5828 5824 5821 5818 5815 5812 5809 5806 5803 5800 5798 5795 5793 5791 5789 5787 5786 5785 5784 5783 5782 5780 5779 5777 5776 5775 5774 5773
5853 5852 5852 5851 5850 5848 5847 5845 5842 5840 5838 5835 5832 5829 5826 5823 5820 5817 5813 5810 5807 5803 5800 5797 5795 5792 5790 5787 5785 5783 5781 5780 5778 5777 5776 5775 5773 5772 5770 5769 5767 5766 5765
5850 5849 5848 5847 5846 5845 5843 5841 5838 5836 5833 5831 5828 5825 5822 5819 5816 5812 5808 5805 5801 5798 5795 5791 5789 5786 5784 5781 5779 5777 5775 5773 5771 5770 5769 5767 5766 5764 5762 5761 5760 5759 5758
5846 5845 5844 5843 5842 5840 5839 5837 5834 5832 5829 5826 5823 5820 5817 5813 5810 5807 5803 5800 5796 5793 5789 5786 5783 5780 5777 5775 5772 5770 5768 5766 5764 5762 5761 5759 5758 5756 5754 5752 5752 5751 5750
5842 5841 5840 5839 5838 5836 5834 5832 5829 5827 5824 5821 5818 5815 5812 5808 5805 5801 5798 5794 5791 5787 5783 5780 5777 5774 5771 5768 5765 5763 5760 5758 5756 5755 5753 5751 5750 5748 5746 5745 5744 5744 5743
5838 5837 5836 5835 5833 5831 5829 5827 5824 5821 5818 5815 5812 5809 5806 5803 5799 5796 5792 5789 5785 5781 5777 5773 5770 5767 5763 5761 5758 5755 5753 5750 5748 5747 5745 5743 5742 5740 5739 5738 5737 5736 5735
5834 5832 5831 5830 5828 5826 5823 5821 5819 5816 5813 5810 5807 5804 5801 5797 5794 5790 5786 5782 5778 5774 5770 5767 5763 5760 5756 5753 5751 5748 5746 5743 5741 5739 5737 5735 5734 5732 5731 5730 5729 5729 5728
5829 5828 5826 5824 5822 5820 5818 5815 5813 5810 5807 5805 5801 5798 5795 5792 5788 5784 5780 5776 5772 5768 5764 5760 5756 5753 5749 5746 5743 5740 5738 5736 5734 5732 5730 5728 5726 5725 5724 5723 5722 5721 5720
5824 5822 5821 5819 5817 5814 5812 5810 5807 5805 5802 5799 5796 5793 5790 5786 5782 5779 5774 5770 5766 5762 5757 5753 5749 5746 5742 5738 5735 5733 5730 5728 5726 5724 5722 5721 5719 5718 5716 5715 5714 5713 5712
5819 5817 5815 5813 5811 5809 5807 5804 5801 5799 5796 5794 5790 5787 5783 5780 5776 5772 5768 5764 5759 5755 5751 5747 5743 5739 5735 5731 5728 5725 5722 5720 5718 5717 5715 5713 5712 5710 5709 5708 5706 5705 5705
5813 5811 5810 5807 5805 5803 5801 5798 5796 5793 5790 5787 5784 5781 5777 5773 5769 5765 5761 5757 5753 5749 5745 5740 5736 5732 5728 5724 5721 5718 5715 5712 5711 5709 5707 5706 5704 5703 5701 5700 5699 5698 5698
5807 5805 5803 5801 5800 5797 5795 5792 5789 5787 5784 5781 5778 5774 5771 5767 5763 5759 5755 5750 5746 5742 5738 5734 5730 5726 5722 5718 5714 5711 5708 5705 5703 5701 5700 5698 5697 5695 5694 5693 5692 5691 5691
5801 5799 5798 5796 5794 5791 5789 5786 5783 5781 5778 5775 5772 5768 5765 5761 5757 5752 5748 5744 5740 5736 5731 5727 5723 5719 5716 5712 5708 5704 5701 5699 5696 5694 5692 5691 5689 5688 5687 5686 5685 5684 5684
5794 5793 5791 5790 5787 5785 5783 5780 5777 5775 5772 5768 5765 5762 5758 5754 5750 5746 5742 5737 5734 5729 5725 5721 5717 5713 5709 5705 5702 5698 5695 5692 5690 5688 5686 5684 5683 5681 5680 5679 5678 5677 5677
5788 5787 5785 5783 5781 5779 5776 5774 5771 5768 5765 5762 5759 5755 5751 5747 5743 5739 5735 5731 5727 5723 5719 5715 5711 5707 5703 5699 5695 5692 5689 5686 5684 5681 5679 5678 5676 5675 5673 5672 5671 5671 5670
5782 5780 5779 5777 5775 5773 5770 5767 5765 5762 5759 5755 5752 5749 5745 5741 5737 5733 5729 5725 5721 5716 5712 5708 5704 5700 5697 5693 5689 5686 5683 5680 5677 5675 5673 5671 5670 5668 5667 5666 5665 5664 5664
5775 5774 5772 5770 5768 5766 5763 5760 5758 5755 5752 5749 5745 5742 5738 5734 5730 5726 5722 5718 5714 5710 5706 5702 5698 5694 5690 5687 5683 5679 5676 5673 5671 5669 5667 5665 5663 5662 5660 5659 5658 5658 5657
5769 5767 5765 5763 5761 5758 5756 5754 5751 5748 5745 5741 5738 5735 5731 5727 5723 5719 5715 5712 5708 5703 5700 5696 5692 5688 5684 5680 5676 5673 5670 5667 5664 5662 5660 5658 5656 5655 5654 5653 5652 5651 5651
5762 5760 5758 5756 5754 5751 5749 5747 5744 5741 5738 5735 5731 5728 5725 5721 5717 5713 5709 5705 5701 5697 5693 5689 5685 5681 5677 5673 5669 5666 5663 5660 5657 5655 5653 5651 5649 5648 5647 5646 5646 5645 5644
5755 5753 5751 5749 5747 5745 5743 5740 5737 5734 5731 5728 5725 5722 5718 5715 5711 5707 5703 5699 5694 5690 5686 5682 5678 5674 5670 5666 5663 5659 5656 5654 5651 5649 5647 5645 5643 5642 5641 5640 5639 5639 5638
5748 5747 5745 5743 5741 5738 5736 5734 5731 5728 5725 5722 5718 5715 5712 5708 5704 5700 5696 5692 5688 5684 5680 5676 5672 5668 5664 5660 5656 5653 5650 5647 5644 5642 5640 5639 5637 5636 5635 5634 5633 5633 5633
5742 5740 5738 5736 5734 5732 5729 5727 5724 5722 5719 5715 5712 5709 5705 5702 5698 5694 5690 5686 5682 5678 5674 5669 5665 5661 5657 5653 5649 5646 5643 5640 5638 5636 5634 5632 5631 5630 5629 5628 5628 5627 5627
5735 5733 5731 5729 5727 5725 5722 5720 5718 5715 5712 5709 5706 5702 5699 5695 5691 5687 5684 5679 5675 5671 5667 5663 5659 5655 5651 5647 5643 5640 5637 5635 5632 5630 5629 5627 5626 5625 5624 5624 5623 5623 5622
5728 5726 5724 5722 5720 5718 5716 5713 5711 5708 5706 5703 5700 5696 5693 5689 5685 5681 5677 5673 5669 5665 5660 5656 5652 5648 5644 5641 5638 5635 5632 5629 5627 5625 5624 5623 5622 5621 5619 5619 5618 5618 5617